Location: Albany
(35.0000°S, 118.0000°E)
Time: 03:41:32
(UTC-04:00)

ERS-1 Rocket - Visible Passes

Search period start: 18 September 2014 00:00
Search period end: 28 September 2014 00:00
Orbit: 754 x 760 km, 98.7° (Epoch: 17 September)

Date Brightness Start Highest point End Pass type
(mag) Time Alt. Az. Time Alt. Az. Time Alt. Az.
18 Sep 3.4 07:15:48 10° SSE 07:20:33 39° E 07:25:14 10° NNE visible
18 Sep 5.3 08:55:15 10° SSW 08:59:02 21° WSW 09:02:47 10° WNW visible
19 Sep 4.4 06:38:19 10° ESE 06:41:15 15° E 06:44:10 10° NE visible
19 Sep 3.7 08:15:21 10° S 08:20:18 51° WSW 08:25:10 10° NNW visible
20 Sep 2.9 07:36:16 10° SSE 07:41:20 64° ENE 07:46:19 10° N visible
20 Sep 5.8 09:17:05 10° SW 09:19:31 14° WSW 09:21:56 10° W visible
21 Sep 3.9 06:58:00 10° SE 07:02:09 25° E 07:06:15 10° NNE visible
21 Sep 4.6 08:36:25 10° S 08:40:54 32° WSW 08:45:20 10° NW visible
22 Sep 3.0 07:56:56 10° S 08:02:03 80° WSW 08:07:05 10° NNW visible
22 Sep 6.5 17:32:54 10° ESE 17:33:48 10° ESE 17:34:43 10° SE visible
23 Sep 3.3 07:18:11 10° SSE 07:22:58 40° E 07:27:41 10° NNE visible
23 Sep 5.3 08:57:44 10° SSW 09:01:26 21° WSW 09:05:06 10° WNW visible
24 Sep 4.4 06:40:37 10° SE 06:43:41 16° E 06:46:43 10° NE visible
24 Sep 3.8 08:17:48 10° S 08:22:42 49° WSW 08:27:32 10° NW visible
25 Sep 2.9 07:38:40 10° SSE 07:43:44 66° ENE 07:48:44 10° N visible
25 Sep 5.9 09:19:39 10° SW 09:21:54 13° WSW 09:24:08 10° W visible
26 Sep 3.9 07:00:21 10° SE 07:04:34 26° E 07:08:43 10° NNE visible
26 Sep 4.7 08:38:51 10° S 08:43:17 31° WSW 08:47:40 10° NW visible
27 Sep 3.1 07:59:21 10° S 08:04:26 77° WSW 08:09:28 10° NNW visible
